Flag Weather past 2 weeks in Palestine, Texas, U.S.A.

Now
64 °F

Sunny.


Feels Like: 64 °F
Forecast: 41 / 64 °F
Wind: No wind

Location: Palestine Municipal Airport

Current Time: Nov 26, 2014 at 5:33:57 PM

Latest Report: Nov 26, 2014 at 4:55 PM


Visibility: 10 mi

Pressure: 30.21 "Hg

Humidity: 31%

Dew point: 32 °F

Location of PalestineLocation

Historic Weather in Palestine — Graph

°F

Palestine temperature yesterday

Maximum temperature yesterday: 64 °F (at 3:15 PM)
Minimum temperature yesterday: 32 °F (at 6:15 AM)
Average temperature yesterday: 45 °F

Past Weeks' High & Low Weather Summary

 TemperatureHumidityPressure
High77 °F (Nov 23, 2:55 PM)100% (Nov 16, 1:15 AM)30.56 "Hg (Nov 16, 1:15 AM)
Low25 °F (Nov 18, 7:15 AM)23% (Nov 25, 3:55 PM)29.44 "Hg (Nov 23, 2:15 PM)
Average46 °F71%30.20 "Hg
* Reported Nov 11 4:15 PM — Nov 26 4:15 PM, Palestine, Weather by CustomWeather, © 2014

Note: Actual official high and low records may vary slightly from our data, if they occured in-between our weather recording intervals... More about our weather records

Advertising

Palestine weather history for previous 24 hours

 ConditionsComfort  
Time TempWeatherWind HumidityBarometerVisibility
4:15 PM
Nov 26
65 °FSunny.3 mph28%30.20 "Hg10 mi
3:55 PM66 °FSunny.8 mph27%30.20 "Hg10 mi
3:15 PM67 °FSunny.6 mph27%30.18 "Hg10 mi
2:55 PM66 °FSunny.8 mph28%30.17 "Hg10 mi
2:35 PM67 °FSunny.6 mph27%30.17 "Hg10 mi
2:15 PM66 °FSunny.13 mph28%30.17 "Hg10 mi
1:55 PM66 °FSunny.13 mph28%30.16 "Hg10 mi
1:35 PM66 °FSunny.12 mph28%30.16 "Hg10 mi
1:15 PM66 °FSunny.12 mph28%30.16 "Hg10 mi
12:55 PM65 °FSunny.10 mph29%30.16 "Hg10 mi
12:35 PM64 °FSunny.12 mph29%30.16 "Hg10 mi
12:15 PM63 °FSunny.14 mph29%30.17 "Hg10 mi
11:55 AM64 °FSunny.14 mph30%30.18 "Hg10 mi
11:35 AM64 °FSunny.10 mph29%30.19 "Hg10 mi
11:15 AM63 °FSunny.16 mph31%30.18 "Hg10 mi
10:55 AM62 °FSunny.17 mph33%30.18 "Hg10 mi
10:35 AM61 °FSunny.13 mph35%30.18 "Hg10 mi
10:15 AM59 °FSunny.16 mph38%30.19 "Hg10 mi
9:55 AM57 °FSunny.10 mph44%30.19 "Hg10 mi
9:35 AM54 °FSunny.9 mph50%30.18 "Hg10 mi
9:15 AM52 °FSunny.10 mph54%30.17 "Hg10 mi
8:55 AM49 °FSunny.7 mph58%30.18 "Hg10 mi
8:35 AM47 °FSunny.9 mph64%30.17 "Hg10 mi
8:15 AM45 °FSunny.6 mph69%30.15 "Hg10 mi
7:55 AM43 °FSunny.7 mph73%30.14 "Hg10 mi
7:35 AM42 °FSunny.5 mph77%30.14 "Hg10 mi
7:15 AM41 °FSunny.5 mph77%30.14 "Hg10 mi
7:00 AM41 °FSunny.5 mph77%30.14 "Hg10 mi
6:35 AM41 °FClear.6 mph76%30.14 "Hg10 mi
6:15 AM41 °FClear.3 mph76%30.15 "Hg10 mi
5:55 AM41 °FClear.6 mph73%30.15 "Hg10 mi
5:15 AM42 °FClear.6 mph71%30.13 "Hg10 mi
4:55 AM42 °FClear.5 mph69%30.13 "Hg10 mi
4:35 AM42 °FClear.5 mph68%30.13 "Hg10 mi
4:15 AM42 °FClear.5 mph67%30.12 "Hg10 mi
3:55 AM42 °FClear.5 mph67%30.13 "Hg10 mi
3:15 AM42 °FClear.5 mph67%30.14 "Hg10 mi
2:55 AM42 °FClear.5 mph68%30.15 "Hg10 mi
2:35 AM41 °FClear.5 mph74%30.15 "Hg10 mi
2:15 AM43 °FClear.5 mph66%30.15 "Hg10 mi
1:55 AM43 °FClear.3 mph65%30.15 "Hg10 mi
1:15 AM42 °FClear.3 mph67%30.16 "Hg10 mi
12:55 AM43 °FClear.3 mph66%30.17 "Hg10 mi
12:35 AM42 °FClear.3 mph68%30.17 "Hg10 mi
12:15 AM42 °FClear.3 mph72%30.18 "Hg10 mi
11:55 PM
Nov 25
39 °FClear.No wind89%30.18 "Hg10 mi
11:35 PM41 °FClear.3 mph78%30.19 "Hg10 mi
11:15 PM44 °FClear.No wind65%30.19 "Hg10 mi
10:55 PM43 °FClear.3 mph71%30.20 "Hg10 mi
10:35 PM42 °FClear.No wind85%30.19 "Hg10 mi
10:15 PM44 °FClear.No wind70%30.20 "Hg10 mi
9:15 PM42 °FClear.3 mph84%30.20 "Hg10 mi
8:55 PM42 °FClear.No wind77%30.20 "Hg10 mi
8:15 PM42 °FClear.No wind83%30.21 "Hg10 mi
7:55 PM43 °FClear.No wind80%30.21 "Hg10 mi
7:35 PM43 °FClear.No wind78%30.21 "Hg10 mi
7:15 PM44 °FClear.No wind78%30.21 "Hg10 mi
6:55 PM46 °FClear.No wind71%30.21 "Hg10 mi
6:35 PM47 °FClear.No wind69%30.20 "Hg10 mi
6:15 PM49 °FClear.No wind61%30.20 "Hg10 mi
5:55 PM55 °FClear.No wind36%30.20 "Hg10 mi
5:15 PM59 °FSunny.5 mph31%30.19 "Hg10 mi
Weather by CustomWeather, © 2014

See weather overviewHow to use our weather pages